Location: Kuffner-Sternwarte
(48.2130°N, 16.2960°E)
Time: 15:39:11
(UTC+02:00)

COROT - Pass Details

Date: 11 May 2026
Orbit: 594 x 855 km, 90.1° (Epoch: 21 May)

Event Time Altitude Azimuth Distance (km) Brightness Sun altitude
Rises 23:13:05 0° 7° (N) 3,381 10.3 -20.2°
Reaches altitude 10° 23:15:42 10° 15° (NNE) 2,414 9.3 -20.4°
Maximum altitude 23:20:45 40° 84° (E) 1,149 6.7 -20.7°
Enters shadow 23:21:54 35° 114° (ESE) 1,233 6.7 -20.8°
